Regional Weather Roundup
Issued by NWS

Home | Current Version | Previous Version | Text Only | Print | Product List | Glossary On
Versions: 1 2 3 4 5 6 7 8 9 10 11 12 13 14 15 16 17 18 19 20 21 22 23 24 25 26 27
000
ASUS45 KBOU 271807
RWRCO

WEATHER ROUNDUP FOR COLORADO
NATIONAL WEATHER SERVICE DENVER/BOULDER CO
1200 PM MDT MON MAR 27 2017

NOTE: "FAIR" INDICATES FEW OR NO CLOUDS BELOW 12000 FEET WITH NO
SIGNIFICANT WEATHER AND/OR OBSTRUCTIONS TO VISIBILITY.

COZ001>005-013-030-031-271900-
...NORTHWEST COLORADO...

CITY           SKY/WX    TMP DP  RH WIND       PRES   REMARKS
CRAIG          FAIR      52  25  35 VRB7      29.89F
HAYDEN         FAIR      46  23  39 CALM      29.90F
MEEKER         FAIR      52  26  36 N5        29.88F
MOUNT WERNER   NOT AVBL
STEAMBOAT SPGS FAIR      47  23  39 E3        29.91F
WALDEN         NOT AVBL
$$

COZ006>008-011-271900-
...WEST CENTRAL VALLEYS...

CITY           SKY/WX    TMP DP  RH WIND       PRES   REMARKS
GRAND JUNCTION CLOUDY    58  27  30 S9        29.86F
MONTROSE       PTSUNNY   52  30  43 NW8       29.91F
EAGLE          NOT AVBL
RIFLE          FAIR      54  28  36 CALM      29.87F
DELTA          CLOUDY    57  23  26 E3        29.89F
NUCLA          PTSUNNY   55  25  30 SW5       29.94F
$$

COZ017>023-064>068-271900-
...SOUTHWEST COLORADO...

CITY           SKY/WX    TMP DP  RH WIND       PRES   REMARKS
DURANGO        PTSUNNY   51  25  36 E5        29.97F
CORTEZ         FAIR      57  26  30 S13G18    29.92F
PAGOSA SPRINGS PTSUNNY   49  26  41 S9        30.01F
TELLURIDE      CLOUDY    43  16  34 S7G18     29.99F
WOLF CREEK PAS FAIR      28  21  74 S22G28    30.11F WCI  15
$$

COZ009-010-012-014-032>034-037-058>063-271900-
...CENTRAL COLORADO...

CITY           SKY/WX    TMP DP  RH WIND       PRES   REMARKS
ASPEN          PTSUNNY   50  19  29 N7        29.89F
BUENA VISTA    FAIR      51  15  23 CALM      29.93F
COPPER MTN     NOT AVBL
BERTHOUD PASS  PTSUNNY   27  14  59 S6        30.05F WCI  20
COTTONWOOD PAS FAIR      50  18  27 E10       29.98F
GUNNISON       FAIR      43  24  47 CALM      29.96F
KREMMLING      PTSUNNY   55  25  30 S8        29.92F
LEADVILLE      CLOUDY    39  13  34 S9        29.95F
MONARCH PASS   FAIR      32  16  51 SW16G23   30.15F WCI  21
SALIDA         FAIR      54  21  27 SE13G20   30.00F
SUNLIGHT       CLOUDY    36  19  51 S7G18     30.03F
WILKERSON PASS FAIR      36  19  51 SW6       30.06F
$$

COZ069>075-271900-
...SAN LUIS VALLEY/SANGRE DE CRISTO MOUNTAINS...

CITY           SKY/WX    TMP DP  RH WIND       PRES   REMARKS
ALAMOSA        CLOUDY    52  23  32 S12       29.97F
LA VETA PASS   NOT AVBL
SAGUACHE       CLOUDY    46  27  46 S7        29.98F
$$

COZ035-036-038>040-271900-
...NORTHERN COLORADO FRONT RANGE...

CITY           SKY/WX    TMP DP  RH WIND       PRES   REMARKS
DENVER INTL AP FAIR      57  34  41 E6        29.89F
DMNS CITY PARK   N/A     58  31  35 NE8G15    29.87F
AURORA         MOSUNNY   58  35  43 NE8       29.89F
FRONT RANGE AP MOSUNNY   57  37  47 CALM      29.90F
ERIE MUNI ARPT FAIR      54  38  55 CALM      29.90F
BOULDER MUN AP CLOUDY    54  37  54 E5        29.90F
CENTENNIAL     FAIR      57  24  28 SE10      29.88F
BROOMFIELD     MOSUNNY   54  36  50 VRB3      29.91F
FORT COLLINS   FAIR      54  39  57 E5        29.90F
LONGMONT       PTSUNNY   56  38  50 CALM      29.91F
$$

COZ041-046-047-076>085-087-088-271900-
...PIKES PEAK/PALMER DIVIDE AND SOUTHERN FOOTHILLS...

CITY           SKY/WX    TMP DP  RH WIND       PRES   REMARKS
COLO. SPRINGS  PTSUNNY   53  33  46 S17       29.95F
A. F. ACADEMY  CLOUDY    50  34  53 S15       29.93F
SCHRIEVER AFB  FAIR      52  32  47 S15G25    29.95F
ELLICOTT         N/A    N/A N/A N/A S16G24    29.94F
FALCON         FAIR      50  31  48 S18G24    29.97F
FORT CARSON    PTSUNNY   54  35  50 S17       29.93F
LIMON          PTSUNNY   58  36  43 S15G22    29.94F
MONUMENT HILL  FAIR      46  32  57 S16G23    29.95F
TRINIDAD       FAIR      56  34  43 SE8       29.94F
$$

COZ042>045-048>051-090-091-271900-
...NORTHEAST COLORADO...

CITY           SKY/WX    TMP DP  RH WIND       PRES   REMARKS
GREELEY ARPT   FAIR      59  36  42 S6        29.90F
AKRON          FAIR      59  33  37 S10       29.91F
BURLINGTON     FAIR      59  41  51 SE8       29.94F
WRAY           NOT AVBL
STERLING       FAIR      55  41  58 S7        29.90F
HOLYOKE        FAIR      61  37  41 S6        29.92F
FORT MORGAN    FAIR      59  36  41 SE12      29.91F
$$

COZ086-089-092>099-271900-
...SOUTHEAST COLORADO...

CITY           SKY/WX    TMP DP  RH WIND       PRES   REMARKS
PUEBLO         FAIR      60  36  40 S17       29.91F
LA JUNTA       FAIR      60  38  43 E12       29.93F
LAMAR          FAIR      63  36  36 VRB5      29.93F
SPRINGFIELD      N/A     59  35  40 S10G20    29.95F
$$




USA.gov is the U.S. government's official web portal to all federal, state and local government web resources and services.